Notices

What's New in latest Release from April 7th, 2021:

- Updated Glossary, including Speed of Maximum Gust, and Total Hourly Precipitation

- Updated national and regional climate services offices contacts and prices information

- Addition of station inventory lists for 1981-2010, 1971-2000, and 1961-1990 Normals.

If you haven't already, please take our survey and provide feedback about our website: https://eccc.sondage-survey.ca/f/LanguageSelection.aspx?s=442ca660-fcf1-47c0-95a9-59707d6fd709

Hourly Data Report for April 29, 2012

MIRAMICHI RCS
NEW BRUNSWICK

47°00'34.000" N
65°27'54.000" W
33.00 m
8100989
71744
ACQ

Download Data

Hourly Data (April 2012)
Hourly Data Report for April 29, 2012
TIME
LST
Temp Definition
°C
Dew Point Definition
°C
Rel Hum Definition
%
Precip. Amount Definition
mm

Wind Dir Definition
10's deg

Wind Spd Definition
km/h
Visibility Definition
km
Stn Press Definition
kPa
Hmdx Definition


Wind Chill Definition


Weather Definition


00:00 -0.5 -9.5 51   26 13   100.78   -5 LegendNANA
01:00 -0.9 -9.8 51   25 11   100.79   -5 LegendNANA
02:00 -1.3 -9.7 53   25 11   100.80   -5 LegendNANA
03:00 -1.6 -9.5 55   25 11   100.82   -5 LegendNANA
04:00 -2.1 -9.8 56   27 11   100.84   -6 LegendNANA
05:00 -2.5 -9.9 57   27 7   100.86   -5 LegendNANA
06:00 -2.5 -9.5 59   26 6   100.88   -5 LegendNANA
07:00 -0.7 -9.1 53   26 9   100.89   -4 LegendNANA
08:00 0.7 -10.2 44   26 15   100.84     LegendNANA
09:00 1.8 -10.8 39   26 19   100.78     LegendNANA
10:00 3.4 -10.8 34   27 24   100.75     LegendNANA
11:00 4.2 -11.3 31   27 24   100.72     LegendNANA
12:00 4.5 -11.1 31   28 24   100.67     LegendNANA
13:00 5.2 -11.8 28   28 24   100.64     LegendNANA
14:00 6.4 -11.6 26   26 22   100.65     LegendNANA
15:00 6.7 -11.0 27   29 19   100.66     LegendNANA
16:00 5.1 -11.5 29   29 19   100.70     LegendNANA
17:00 4.6 -11.4 30   29 19   100.78     LegendNANA
18:00 3.2 -11.5 33   31 17   100.88     LegendNANA
19:00 2.6 -10.9 36   31 19   101.01     LegendNANA
20:00 1.1 -9.7 44   31 11   101.13     LegendNANA
21:00 0.4 -8.6 51   31 7   101.22     LegendNANA
22:00 0.5 -7.4 55   31 7   101.28     LegendNANA
23:00 -0.8 -7.4 61   29 6   101.30   -3 LegendNANA

Notes on Data Quality.

Legend

  • E = Estimated
  • M = Missing
  • NA = Not Available*
  • [empty] = Indicates an unobserved value
Date modified: